contact:dominique.lefevre@mio.osupytheas.fr, maurice.libes@osupytheas.fr, didier.mallarino@osupytheas.fr
Project:EMSO http://www.emso-fr.org/EMSO-France
Depth: 2436.0 m
Title:EMSO Ligure Ouest : Data MII capteur OXYGEN
DateTime,Latitude,Longitude,Optode-Type,Optode_Serial,Oxygen,Saturation_Oxygen,Temperature
DateTime,Latitude,Longitude,Optode-Type,Optode_Serial,µmol.l-1,%,degC
2017-10-12T00:01:55,42.805,6.029,4330,1995,196.854,60.204,13.290
2017-10-12T00:04:55,42.805,6.029,4330,1995,196.438,60.076,13.290
2017-10-12T00:07:55,42.805,6.029,4330,1995,196.169,59.993,13.290
2017-10-12T00:10:55,42.805,6.029,4330,1995,196.094,59.970,13.289
2017-10-12T00:13:55,42.805,6.029,4330,1995,196.156,59.988,13.289
2017-10-12T00:16:55,42.805,6.029,4330,1995,195.973,59.934,13.290
2017-10-12T00:19:55,42.805,6.029,4330,1995,196.032,59.951,13.289
2017-10-12T00:22:55,42.805,6.029,4330,1995,196.068,59.961,13.289
2017-10-12T00:25:55,42.805,6.029,4330,1995,195.944,59.925,13.290
2017-10-12T00:28:55,42.805,6.029,4330,1995,195.954,59.928,13.290
2017-10-12T00:31:55,42.805,6.029,4330,1995,195.878,59.907,13.291
2017-10-12T00:34:55,42.805,6.029,4330,1995,195.673,59.844,13.291
2017-10-12T00:37:55,42.805,6.029,4330,1995,195.452,59.774,13.290
2017-10-12T00:40:55,42.805,6.029,4330,1995,195.366,59.748,13.290
2017-10-12T00:43:55,42.805,6.029,4330,1995,195.420,59.765,13.290
2017-10-12T00:46:55,42.805,6.029,4330,1995,195.272,59.719,13.290
2017-10-12T00:49:55,42.805,6.029,4330,1995,195.073,59.658,13.290
2017-10-12T00:52:55,42.805,6.029,4330,1995,195.014,59.640,13.290
2017-10-12T00:55:55,42.805,6.029,4330,1995,194.905,59.607,13.289
2017-10-12T00:58:55,42.805,6.029,4330,1995,194.772,59.567,13.290
2017-10-12T01:01:55,42.805,6.029,4330,1995,194.565,59.503,13.290
2017-10-12T01:04:55,42.805,6.029,4330,1995,194.539,59.495,13.290
2017-10-12T01:07:55,42.805,6.029,4330,1995,194.429,59.461,13.289
2017-10-12T01:10:55,42.805,6.029,4330,1995,194.216,59.396,13.290
2017-10-12T01:13:55,42.805,6.029,4330,1995,194.124,59.367,13.289
2017-10-12T01:16:55,42.805,6.029,4330,1995,194.008,59.332,13.289
2017-10-12T01:19:55,42.805,6.029,4330,1995,193.951,59.315,13.289
2017-10-12T01:22:55,42.805,6.029,4330,1995,194.033,59.342,13.291
2017-10-12T01:25:55,42.805,6.029,4330,1995,194.101,59.361,13.290
2017-10-12T01:28:55,42.805,6.029,4330,1995,194.530,59.493,13.290
2017-10-12T01:31:55,42.805,6.029,4330,1995,194.489,59.479,13.290
2017-10-12T01:34:55,42.805,6.029,4330,1995,194.713,59.547,13.289
2017-10-12T01:37:55,42.805,6.029,4330,1995,194.743,59.557,13.289
2017-10-12T01:40:55,42.805,6.029,4330,1995,194.693,59.542,13.289
2017-10-12T01:43:55,42.805,6.029,4330,1995,194.599,59.512,13.289
2017-10-12T01:46:55,42.805,6.029,4330,1995,194.405,59.453,13.289
2017-10-12T01:49:55,42.805,6.029,4330,1995,194.746,59.557,13.289
2017-10-12T01:52:55,42.805,6.029,4330,1995,194.959,59.624,13.290
2017-10-12T01:55:55,42.805,6.029,4330,1995,194.764,59.566,13.291
2017-10-12T01:58:55,42.805,6.029,4330,1995,194.439,59.465,13.290
2017-10-12T02:01:55,42.805,6.029,4330,1995,194.472,59.475,13.290
2017-10-12T02:04:55,42.805,6.029,4330,1995,195.070,59.657,13.290
2017-10-12T02:07:55,42.805,6.029,4330,1995,195.339,59.740,13.290
2017-10-12T02:10:55,42.805,6.029,4330,1995,195.184,59.694,13.291
2017-10-12T02:13:55,42.805,6.029,4330,1995,195.229,59.708,13.291
2017-10-12T02:16:55,42.805,6.029,4330,1995,195.412,59.762,13.290
2017-10-12T02:19:55,42.805,6.029,4330,1995,195.390,59.757,13.291
2017-10-12T02:22:55,42.805,6.029,4330,1995,195.425,59.769,13.292
2017-10-12T02:25:55,42.805,6.029,4330,1995,195.380,59.751,13.289
2017-10-12T02:28:55,42.805,6.029,4330,1995,195.785,59.876,13.290
2017-10-12T02:31:55,42.805,6.029,4330,1995,195.838,59.893,13.290
2017-10-12T02:34:55,42.805,6.029,4330,1995,195.892,59.908,13.289
2017-10-12T02:37:55,42.805,6.029,4330,1995,196.138,59.984,13.289
2017-10-12T02:40:55,42.805,6.029,4330,1995,196.594,60.122,13.288
2017-10-12T02:43:55,42.805,6.029,4330,1995,196.554,60.108,13.288
2017-10-12T02:46:55,42.805,6.029,4330,1995,197.004,60.247,13.289
2017-10-12T02:49:55,42.805,6.029,4330,1995,196.935,60.226,13.288
2017-10-12T02:52:55,42.805,6.029,4330,1995,196.766,60.174,13.288
2017-10-12T02:55:55,42.805,6.029,4330,1995,196.637,60.136,13.289
2017-10-12T02:58:55,42.805,6.029,4330,1995,196.756,60.172,13.289
2017-10-12T03:01:55,42.805,6.029,4330,1995,196.584,60.118,13.288
2017-10-12T03:04:55,42.805,6.029,4330,1995,197.078,60.270,13.288
2017-10-12T03:07:55,42.805,6.029,4330,1995,197.040,60.260,13.290
2017-10-12T03:10:55,42.805,6.029,4330,1995,197.016,60.251,13.289
2017-10-12T03:13:55,42.805,6.029,4330,1995,197.083,60.270,13.288
2017-10-12T03:16:55,42.805,6.029,4330,1995,197.148,60.292,13.289
2017-10-12T03:19:55,42.805,6.029,4330,1995,197.285,60.333,13.289
2017-10-12T03:22:55,42.805,6.029,4330,1995,197.206,60.311,13.290
2017-10-12T03:25:55,42.805,6.029,4330,1995,197.060,60.267,13.291
2017-10-12T03:28:55,42.805,6.029,4330,1995,197.419,60.374,13.288
2017-10-12T03:31:55,42.805,6.029,4330,1995,197.290,60.334,13.288
2017-10-12T03:34:55,42.805,6.029,4330,1995,197.428,60.376,13.288
2017-10-12T03:37:55,42.805,6.029,4330,1995,197.491,60.396,13.289
2017-10-12T03:40:55,42.805,6.029,4330,1995,197.479,60.392,13.288
2017-10-12T03:43:55,42.805,6.029,4330,1995,197.571,60.421,13.289
2017-10-12T03:46:55,42.805,6.029,4330,1995,197.463,60.386,13.287
2017-10-12T03:49:55,42.805,6.029,4330,1995,197.601,60.427,13.286
2017-10-12T03:52:55,42.805,6.029,4330,1995,197.539,60.411,13.288
2017-10-12T03:55:55,42.805,6.029,4330,1995,197.408,60.370,13.288
2017-10-12T03:58:55,42.805,6.029,4330,1995,197.236,60.317,13.287
2017-10-12T04:01:55,42.805,6.029,4330,1995,197.339,60.350,13.289
2017-10-12T04:04:55,42.805,6.029,4330,1995,197.309,60.340,13.288
2017-10-12T04:07:55,42.805,6.029,4330,1995,197.278,60.332,13.289
2017-10-12T04:10:55,42.805,6.029,4330,1995,197.030,60.254,13.288
2017-10-12T04:13:55,42.805,6.029,4330,1995,197.114,60.282,13.289
2017-10-12T04:16:55,42.805,6.029,4330,1995,196.846,60.198,13.288
2017-10-12T04:19:55,42.805,6.029,4330,1995,196.697,60.154,13.289
2017-10-12T04:22:55,42.805,6.029,4330,1995,197.067,60.267,13.289
2017-10-12T04:25:55,42.805,6.029,4330,1995,197.342,60.349,13.287
2017-10-12T04:28:55,42.805,6.029,4330,1995,197.245,60.321,13.289
2017-10-12T04:31:55,42.805,6.029,4330,1995,197.011,60.252,13.290
2017-10-12T04:34:55,42.805,6.029,4330,1995,197.370,60.358,13.288
2017-10-12T04:37:55,42.805,6.029,4330,1995,197.499,60.399,13.289
2017-10-12T04:40:55,42.805,6.029,4330,1995,197.536,60.414,13.292
2017-10-12T04:43:55,42.805,6.029,4330,1995,197.370,60.360,13.289
2017-10-12T04:46:55,42.805,6.029,4330,1995,197.439,60.380,13.288
2017-10-12T04:49:55,42.805,6.029,4330,1995,197.422,60.373,13.287
2017-10-12T04:52:55,42.805,6.029,4330,1995,197.303,60.337,13.288
2017-10-12T04:55:55,42.805,6.029,4330,1995,197.233,60.317,13.288
2017-10-12T04:58:55,42.805,6.029,4330,1995,197.196,60.304,13.287
2017-10-12T05:01:55,42.805,6.029,4330,1995,197.117,60.282,13.289
2017-10-12T05:04:55,42.805,6.029,4330,1995,197.039,60.257,13.288
2017-10-12T05:07:55,42.805,6.029,4330,1995,196.902,60.217,13.289
2017-10-12T05:10:55,42.805,6.029,4330,1995,197.019,60.250,13.287
2017-10-12T05:13:55,42.805,6.029,4330,1995,196.830,60.194,13.288
2017-10-12T05:16:55,42.805,6.029,4330,1995,196.789,60.181,13.288
2017-10-12T05:19:55,42.805,6.029,4330,1995,196.572,60.115,13.288
2017-10-12T05:22:55,42.805,6.029,4330,1995,196.600,60.124,13.288
2017-10-12T05:25:55,42.805,6.029,4330,1995,196.484,60.088,13.288
2017-10-12T05:28:55,42.805,6.029,4330,1995,196.359,60.051,13.289
2017-10-12T05:31:55,42.805,6.029,4330,1995,196.407,60.064,13.288
2017-10-12T05:34:55,42.805,6.029,4330,1995,196.669,60.143,13.288
2017-10-12T05:37:55,42.805,6.029,4330,1995,196.856,60.203,13.289
2017-10-12T05:40:55,42.805,6.029,4330,1995,196.777,60.179,13.289
2017-10-12T05:43:55,42.805,6.029,4330,1995,196.799,60.184,13.288
2017-10-12T05:46:55,42.805,6.029,4330,1995,196.875,60.207,13.287
2017-10-12T05:49:55,42.805,6.029,4330,1995,196.684,60.148,13.287
2017-10-12T05:52:55,42.805,6.029,4330,1995,196.756,60.169,13.287
2017-10-12T05:55:55,42.805,6.029,4330,1995,196.803,60.185,13.288
2017-10-12T05:58:55,42.805,6.029,4330,1995,197.038,60.257,13.288
2017-10-12T06:01:55,42.805,6.029,4330,1995,196.879,60.210,13.289
2017-10-12T06:04:55,42.805,6.029,4330,1995,196.748,60.167,13.287
2017-10-12T06:07:55,42.805,6.029,4330,1995,196.878,60.207,13.287
2017-10-12T06:10:55,42.805,6.029,4330,1995,197.148,60.289,13.287
2017-10-12T06:13:55,42.805,6.029,4330,1995,197.389,60.363,13.287
2017-10-12T06:16:55,42.805,6.029,4330,1995,197.411,60.370,13.288
2017-10-12T06:19:55,42.805,6.029,4330,1995,197.233,60.316,13.288
2017-10-12T06:22:55,42.805,6.029,4330,1995,197.079,60.270,13.288
2017-10-12T06:25:55,42.805,6.029,4330,1995,196.842,60.197,13.288
2017-10-12T06:28:55,42.805,6.029,4330,1995,196.712,60.156,13.287
2017-10-12T06:31:55,42.805,6.029,4330,1995,196.879,60.208,13.288
2017-10-12T06:34:55,42.805,6.029,4330,1995,197.111,60.278,13.287
2017-10-12T06:37:55,42.805,6.029,4330,1995,197.264,60.325,13.287
2017-10-12T06:40:55,42.805,6.029,4330,1995,197.365,60.357,13.288
2017-10-12T06:43:55,42.805,6.029,4330,1995,197.159,60.294,13.288
2017-10-12T06:46:55,42.805,6.029,4330,1995,197.343,60.349,13.287
2017-10-12T06:49:55,42.805,6.029,4330,1995,197.449,60.382,13.288
2017-10-12T06:52:55,42.805,6.029,4330,1995,197.314,60.342,13.288
2017-10-12T06:55:55,42.805,6.029,4330,1995,197.298,60.336,13.288
2017-10-12T06:58:55,42.805,6.029,4330,1995,197.551,60.413,13.287
2017-10-12T07:01:55,42.805,6.029,4330,1995,197.380,60.360,13.287
2017-10-12T07:04:55,42.805,6.029,4330,1995,197.391,60.364,13.287
2017-10-12T07:07:55,42.805,6.029,4330,1995,197.420,60.373,13.287
2017-10-12T07:10:55,42.805,6.029,4330,1995,197.391,60.364,13.287
2017-10-12T07:13:55,42.805,6.029,4330,1995,197.298,60.335,13.287
2017-10-12T07:16:55,42.805,6.029,4330,1995,197.644,60.441,13.287
2017-10-12T07:19:55,42.805,6.029,4330,1995,197.591,60.426,13.288
2017-10-12T07:22:55,42.805,6.029,4330,1995,197.717,60.463,13.287
2017-10-12T07:25:55,42.805,6.029,4330,1995,197.664,60.448,13.288
2017-10-12T07:28:55,42.805,6.029,4330,1995,197.552,60.412,13.287
2017-10-12T07:31:55,42.805,6.029,4330,1995,197.500,60.397,13.287
2017-10-12T07:34:55,42.805,6.029,4330,1995,197.511,60.401,13.287
2017-10-12T07:37:55,42.805,6.029,4330,1995,197.186,60.301,13.287
2017-10-12T07:40:55,42.805,6.029,4330,1995,197.322,60.343,13.287
2017-10-12T07:43:55,42.805,6.029,4330,1995,197.463,60.385,13.287
2017-10-12T07:46:55,42.805,6.029,4330,1995,197.491,60.395,13.287
2017-10-12T07:49:55,42.805,6.029,4330,1995,197.511,60.400,13.287
2017-10-12T07:52:55,42.805,6.029,4330,1995,197.519,60.402,13.286
2017-10-12T07:55:55,42.805,6.029,4330,1995,197.791,60.486,13.287
2017-10-12T07:58:55,42.805,6.029,4330,1995,197.726,60.465,13.287
2017-10-12T08:01:55,42.805,6.029,4330,1995,197.487,60.392,13.287
2017-10-12T08:04:55,42.805,6.029,4330,1995,197.527,60.405,13.287
2017-10-12T08:07:55,42.805,6.029,4330,1995,197.582,60.422,13.287
2017-10-12T08:10:55,42.805,6.029,4330,1995,197.543,60.410,13.287
2017-10-12T08:13:55,42.805,6.029,4330,1995,197.700,60.457,13.286
2017-10-12T08:16:55,42.805,6.029,4330,1995,197.977,60.543,13.287
2017-10-12T08:19:55,42.805,6.029,4330,1995,198.282,60.637,13.288
2017-10-12T08:22:55,42.805,6.029,4330,1995,197.954,60.536,13.287
2017-10-12T08:25:55,42.805,6.029,4330,1995,197.699,60.458,13.287
2017-10-12T08:28:54,42.805,6.029,4330,1995,197.518,60.403,13.287
2017-10-12T08:31:54,42.805,6.029,4330,1995,197.586,60.425,13.288
2017-10-12T08:34:54,42.805,6.029,4330,1995,197.403,60.368,13.287
2017-10-12T08:37:54,42.805,6.029,4330,1995,197.560,60.415,13.287
2017-10-12T08:40:54,42.805,6.029,4330,1995,197.444,60.380,13.287
2017-10-12T08:43:54,42.805,6.029,4330,1995,197.569,60.417,13.287
2017-10-12T08:46:54,42.805,6.029,4330,1995,197.633,60.438,13.287
2017-10-12T08:49:54,42.805,6.029,4330,1995,197.428,60.376,13.287
2017-10-12T08:52:54,42.805,6.029,4330,1995,197.767,60.478,13.287
2017-10-12T08:55:54,42.805,6.029,4330,1995,197.643,60.441,13.287
2017-10-12T08:58:54,42.805,6.029,4330,1995,197.798,60.488,13.287
2017-10-12T09:01:54,42.805,6.029,4330,1995,197.962,60.539,13.287
2017-10-12T09:04:54,42.805,6.029,4330,1995,198.040,60.563,13.288
2017-10-12T09:07:54,42.805,6.029,4330,1995,198.025,60.558,13.287
2017-10-12T09:10:54,42.805,6.029,4330,1995,197.775,60.481,13.287
2017-10-12T09:13:54,42.805,6.029,4330,1995,197.714,60.463,13.288
2017-10-12T09:16:54,42.805,6.029,4330,1995,197.699,60.457,13.287
2017-10-12T09:19:54,42.805,6.029,4330,1995,197.670,60.449,13.287
2017-10-12T09:22:54,42.805,6.029,4330,1995,197.584,60.423,13.288
2017-10-12T09:25:54,42.805,6.029,4330,1995,197.794,60.486,13.287
2017-10-12T09:28:54,42.805,6.029,4330,1995,197.693,60.455,13.287
2017-10-12T09:31:54,42.805,6.029,4330,1995,197.482,60.391,13.287
2017-10-12T09:34:54,42.805,6.029,4330,1995,197.411,60.369,13.287
2017-10-12T09:37:54,42.805,6.029,4330,1995,197.699,60.457,13.287
2017-10-12T09:40:54,42.805,6.029,4330,1995,197.635,60.438,13.287
2017-10-12T09:43:54,42.805,6.029,4330,1995,197.747,60.473,13.287
2017-10-12T09:46:54,42.805,6.029,4330,1995,197.777,60.482,13.287
2017-10-12T09:49:54,42.805,6.029,4330,1995,197.724,60.465,13.287
2017-10-12T09:52:54,42.805,6.029,4330,1995,197.740,60.471,13.287
2017-10-12T09:55:54,42.805,6.029,4330,1995,197.819,60.495,13.287
2017-10-12T09:58:54,42.805,6.029,4330,1995,197.813,60.493,13.287
2017-10-12T10:01:54,42.805,6.029,4330,1995,197.808,60.491,13.287
2017-10-12T10:04:54,42.805,6.029,4330,1995,197.778,60.482,13.287
2017-10-12T10:07:54,42.805,6.029,4330,1995,197.699,60.458,13.287
2017-10-12T10:10:54,42.805,6.029,4330,1995,197.487,60.394,13.288
2017-10-12T10:13:54,42.805,6.029,4330,1995,197.350,60.351,13.287
2017-10-12T10:16:54,42.805,6.029,4330,1995,197.339,60.348,13.287
2017-10-12T10:19:54,42.805,6.029,4330,1995,197.679,60.452,13.287
2017-10-12T10:22:54,42.805,6.029,4330,1995,197.753,60.475,13.287
2017-10-12T10:25:54,42.805,6.029,4330,1995,197.671,60.449,13.287
2017-10-12T10:28:54,42.805,6.029,4330,1995,197.686,60.453,13.287
2017-10-12T10:31:54,42.805,6.029,4330,1995,197.621,60.433,13.286
2017-10-12T10:34:54,42.805,6.029,4330,1995,198.060,60.568,13.287
2017-10-12T10:37:54,42.805,6.029,4330,1995,198.043,60.564,13.288
2017-10-12T10:40:54,42.805,6.029,4330,1995,197.995,60.547,13.286
2017-10-12T10:43:54,42.805,6.029,4330,1995,197.863,60.508,13.287
2017-10-12T10:46:54,42.805,6.029,4330,1995,197.706,60.460,13.287
2017-10-12T10:49:54,42.805,6.029,4330,1995,197.651,60.443,13.287
2017-10-12T10:52:54,42.805,6.029,4330,1995,197.979,60.544,13.287
2017-10-12T10:55:54,42.805,6.029,4330,1995,198.208,60.614,13.287
2017-10-12T10:58:54,42.805,6.029,4330,1995,197.933,60.530,13.287
2017-10-12T11:01:54,42.805,6.029,4330,1995,197.793,60.487,13.287
2017-10-12T11:04:54,42.805,6.029,4330,1995,197.605,60.430,13.287
2017-10-12T11:07:54,42.805,6.029,4330,1995,197.761,60.477,13.287
2017-10-12T11:10:54,42.805,6.029,4330,1995,197.645,60.441,13.287
2017-10-12T11:13:54,42.805,6.029,4330,1995,196.951,60.230,13.287
2017-10-12T11:16:54,42.805,6.029,4330,1995,197.238,60.316,13.287
2017-10-12T11:19:54,42.805,6.029,4330,1995,197.391,60.364,13.287
2017-10-12T11:22:54,42.805,6.029,4330,1995,196.489,60.088,13.287
2017-10-12T11:25:54,42.805,6.029,4330,1995,196.990,60.241,13.287
2017-10-12T11:28:54,42.805,6.029,4330,1995,197.072,60.266,13.287
2017-10-12T11:31:54,42.805,6.029,4330,1995,197.351,60.351,13.287
2017-10-12T11:34:54,42.805,6.029,4330,1995,197.692,60.457,13.288
2017-10-12T11:37:54,42.805,6.029,4330,1995,197.790,60.486,13.288
2017-10-12T11:40:54,42.805,6.029,4330,1995,197.477,60.390,13.287
2017-10-12T11:43:54,42.805,6.029,4330,1995,197.578,60.420,13.287
2017-10-12T11:46:54,42.805,6.029,4330,1995,197.545,60.411,13.287
2017-10-12T11:49:54,42.805,6.029,4330,1995,197.622,60.434,13.287
2017-10-12T11:52:54,42.805,6.029,4330,1995,197.539,60.409,13.287
2017-10-12T11:55:54,42.805,6.029,4330,1995,197.683,60.454,13.288
2017-10-12T11:58:54,42.805,6.029,4330,1995,197.719,60.465,13.288
2017-10-12T12:01:54,42.805,6.029,4330,1995,197.702,60.458,13.286
2017-10-12T12:04:54,42.805,6.029,4330,1995,198.140,60.592,13.287
2017-10-12T12:07:54,42.805,6.029,4330,1995,198.002,60.550,13.287
2017-10-12T12:10:54,42.805,6.029,4330,1995,197.803,60.490,13.288
2017-10-12T12:13:54,42.805,6.029,4330,1995,197.649,60.443,13.287
2017-10-12T12:16:54,42.805,6.029,4330,1995,197.561,60.415,13.287
2017-10-12T12:19:54,42.805,6.029,4330,1995,197.506,60.400,13.288
2017-10-12T12:22:54,42.805,6.029,4330,1995,197.463,60.386,13.287
2017-10-12T12:25:54,42.805,6.029,4330,1995,197.614,60.432,13.287
2017-10-12T12:28:54,42.805,6.029,4330,1995,197.493,60.394,13.287
2017-10-12T12:31:54,42.805,6.029,4330,1995,197.683,60.453,13.287
2017-10-12T12:34:54,42.805,6.029,4330,1995,197.561,60.416,13.287
2017-10-12T12:37:54,42.805,6.029,4330,1995,197.492,60.396,13.288
2017-10-12T12:40:54,42.805,6.029,4330,1995,197.347,60.351,13.288
2017-10-12T12:43:54,42.805,6.029,4330,1995,197.458,60.386,13.288
2017-10-12T12:46:54,42.805,6.029,4330,1995,197.342,60.350,13.288
2017-10-12T12:49:54,42.805,6.029,4330,1995,197.251,60.322,13.288
2017-10-12T12:52:54,42.805,6.029,4330,1995,197.200,60.306,13.288
2017-10-12T12:55:54,42.805,6.029,4330,1995,197.335,60.346,13.287
2017-10-12T12:58:54,42.805,6.029,4330,1995,197.860,60.507,13.287
2017-10-12T13:01:54,42.805,6.029,4330,1995,197.793,60.487,13.287
2017-10-12T13:04:54,42.805,6.029,4330,1995,197.450,60.382,13.287
2017-10-12T13:07:54,42.805,6.029,4330,1995,197.213,60.310,13.288
2017-10-12T13:10:54,42.805,6.029,4330,1995,197.348,60.351,13.288
2017-10-12T13:13:54,42.805,6.029,4330,1995,197.342,60.350,13.288
2017-10-12T13:16:54,42.805,6.029,4330,1995,197.302,60.336,13.287
2017-10-12T13:19:54,42.805,6.029,4330,1995,197.457,60.384,13.287
2017-10-12T13:22:54,42.805,6.029,4330,1995,197.268,60.326,13.287
2017-10-12T13:25:54,42.805,6.029,4330,1995,197.567,60.418,13.288
2017-10-12T13:28:54,42.805,6.029,4330,1995,197.688,60.455,13.288
2017-10-12T13:31:54,42.805,6.029,4330,1995,197.887,60.515,13.287
2017-10-12T13:34:54,42.805,6.029,4330,1995,197.893,60.517,13.287
2017-10-12T13:37:54,42.805,6.029,4330,1995,197.891,60.517,13.288
2017-10-12T13:40:54,42.805,6.029,4330,1995,197.827,60.497,13.287
2017-10-12T13:43:54,42.805,6.029,4330,1995,197.771,60.479,13.287
2017-10-12T13:46:54,42.805,6.029,4330,1995,197.779,60.483,13.288
2017-10-12T13:49:54,42.805,6.029,4330,1995,197.621,60.435,13.288
2017-10-12T13:52:54,42.805,6.029,4330,1995,197.325,60.345,13.288
2017-10-12T13:55:54,42.805,6.029,4330,1995,197.465,60.387,13.288
2017-10-12T13:58:54,42.805,6.029,4330,1995,197.210,60.309,13.288
2017-10-12T14:01:54,42.805,6.029,4330,1995,197.359,60.354,13.287
2017-10-12T14:04:54,42.805,6.029,4330,1995,197.351,60.351,13.287
2017-10-12T14:07:54,42.805,6.029,4330,1995,197.571,60.418,13.287
2017-10-12T14:10:54,42.805,6.029,4330,1995,197.674,60.450,13.287
2017-10-12T14:13:54,42.805,6.029,4330,1995,197.528,60.406,13.287
2017-10-12T14:16:54,42.805,6.029,4330,1995,197.794,60.488,13.288
2017-10-12T14:19:54,42.805,6.029,4330,1995,197.813,60.493,13.287
2017-10-12T14:22:54,42.805,6.029,4330,1995,197.674,60.450,13.287
2017-10-12T14:25:54,42.805,6.029,4330,1995,197.614,60.432,13.287
2017-10-12T14:28:54,42.805,6.029,4330,1995,197.823,60.495,13.287
2017-10-12T14:31:54,42.805,6.029,4330,1995,197.980,60.543,13.287
2017-10-12T14:34:54,42.805,6.029,4330,1995,197.925,60.528,13.288
2017-10-12T14:37:54,42.805,6.029,4330,1995,197.639,60.442,13.289
2017-10-12T14:40:54,42.805,6.029,4330,1995,197.438,60.378,13.287
2017-10-12T14:43:54,42.805,6.029,4330,1995,197.480,60.392,13.288
2017-10-12T14:46:54,42.805,6.029,4330,1995,197.307,60.339,13.288
2017-10-12T14:49:54,42.805,6.029,4330,1995,197.185,60.302,13.288
2017-10-12T14:52:54,42.805,6.029,4330,1995,197.176,60.299,13.288
2017-10-12T14:55:54,42.805,6.029,4330,1995,197.065,60.265,13.288
2017-10-12T14:58:54,42.805,6.029,4330,1995,197.408,60.369,13.287
2017-10-12T15:01:54,42.805,6.029,4330,1995,197.296,60.335,13.288
2017-10-12T15:04:54,42.805,6.029,4330,1995,197.036,60.256,13.288
2017-10-12T15:07:54,42.805,6.029,4330,1995,196.540,60.103,13.287
2017-10-12T15:10:54,42.805,6.029,4330,1995,196.923,60.221,13.287
2017-10-12T15:13:54,42.805,6.029,4330,1995,197.226,60.314,13.288
2017-10-12T15:16:54,42.805,6.029,4330,1995,197.154,60.292,13.287
2017-10-12T15:19:54,42.805,6.029,4330,1995,197.436,60.377,13.287
2017-10-12T15:22:54,42.805,6.029,4330,1995,197.564,60.417,13.287
2017-10-12T15:25:54,42.805,6.029,4330,1995,197.608,60.431,13.287
2017-10-12T15:28:54,42.805,6.029,4330,1995,197.738,60.470,13.287
2017-10-12T15:31:54,42.805,6.029,4330,1995,197.755,60.475,13.287
2017-10-12T15:34:54,42.805,6.029,4330,1995,197.638,60.439,13.287
2017-10-12T15:37:54,42.805,6.029,4330,1995,197.354,60.352,13.287
2017-10-12T15:40:54,42.805,6.029,4330,1995,197.196,60.304,13.287
2017-10-12T15:43:54,42.805,6.029,4330,1995,197.225,60.313,13.287
2017-10-12T15:46:54,42.805,6.029,4330,1995,197.202,60.305,13.287
2017-10-12T15:49:54,42.805,6.029,4330,1995,197.297,60.336,13.288
2017-10-12T15:52:54,42.805,6.029,4330,1995,197.276,60.330,13.288
2017-10-12T15:55:54,42.805,6.029,4330,1995,197.323,60.343,13.287
2017-10-12T15:58:54,42.805,6.029,4330,1995,197.479,60.390,13.286
2017-10-12T16:01:54,42.805,6.029,4330,1995,197.420,60.373,13.288
2017-10-12T16:04:54,42.805,6.029,4330,1995,197.397,60.365,13.287
2017-10-12T16:07:54,42.805,6.029,4330,1995,197.622,60.434,13.287
2017-10-12T16:10:54,42.805,6.029,4330,1995,197.631,60.437,13.287
2017-10-12T16:13:54,42.805,6.029,4330,1995,197.684,60.455,13.288
2017-10-12T16:16:54,42.805,6.029,4330,1995,198.017,60.556,13.288
2017-10-12T16:19:54,42.805,6.029,4330,1995,198.314,60.645,13.286
2017-10-12T16:22:54,42.805,6.029,4330,1995,198.320,60.647,13.287
2017-10-12T16:25:54,42.805,6.029,4330,1995,198.155,60.597,13.287
2017-10-12T16:28:54,42.805,6.029,4330,1995,198.021,60.557,13.287
2017-10-12T16:31:54,42.805,6.029,4330,1995,198.103,60.581,13.287
2017-10-12T16:34:54,42.805,6.029,4330,1995,198.055,60.566,13.287
2017-10-12T16:37:54,42.805,6.029,4330,1995,198.086,60.576,13.287
2017-10-12T16:40:54,42.805,6.029,4330,1995,198.003,60.552,13.288
2017-10-12T16:43:54,42.805,6.029,4330,1995,197.811,60.491,13.287
2017-10-12T16:46:54,42.805,6.029,4330,1995,197.740,60.470,13.287
2017-10-12T16:49:54,42.805,6.029,4330,1995,198.118,60.585,13.286
2017-10-12T16:52:54,42.805,6.029,4330,1995,198.137,60.590,13.286
2017-10-12T16:55:54,42.805,6.029,4330,1995,198.526,60.710,13.286
2017-10-12T16:58:54,42.805,6.029,4330,1995,198.332,60.651,13.287
2017-10-12T17:01:54,42.805,6.029,4330,1995,198.387,60.667,13.286
2017-10-12T17:04:54,42.805,6.029,4330,1995,198.201,60.611,13.287
2017-10-12T17:07:54,42.805,6.029,4330,1995,197.992,60.548,13.288
2017-10-12T17:10:54,42.805,6.029,4330,1995,197.788,60.486,13.288
2017-10-12T17:13:54,42.805,6.029,4330,1995,197.560,60.416,13.288
2017-10-12T17:16:54,42.805,6.029,4330,1995,197.643,60.442,13.288
2017-10-12T17:19:54,42.805,6.029,4330,1995,197.596,60.428,13.288
2017-10-12T17:22:54,42.805,6.029,4330,1995,197.490,60.395,13.288
2017-10-12T17:25:54,42.805,6.029,4330,1995,197.467,60.387,13.287
2017-10-12T17:28:54,42.805,6.029,4330,1995,197.401,60.368,13.288
2017-10-12T17:31:54,42.805,6.029,4330,1995,197.280,60.330,13.287
2017-10-12T17:34:54,42.805,6.029,4330,1995,197.273,60.327,13.287
2017-10-12T17:37:54,42.805,6.029,4330,1995,197.393,60.366,13.288
2017-10-12T17:40:54,42.805,6.029,4330,1995,197.241,60.320,13.289
2017-10-12T17:43:54,42.805,6.029,4330,1995,197.184,60.300,13.287
2017-10-12T17:46:54,42.805,6.029,4330,1995,197.417,60.372,13.287
2017-10-12T17:49:54,42.805,6.029,4330,1995,197.549,60.412,13.287
2017-10-12T17:52:54,42.805,6.029,4330,1995,197.688,60.455,13.287
2017-10-12T17:55:54,42.805,6.029,4330,1995,197.456,60.383,13.287
2017-10-12T17:58:54,42.805,6.029,4330,1995,197.651,60.442,13.286
2017-10-12T18:01:54,42.805,6.029,4330,1995,197.939,60.531,13.287
2017-10-12T18:04:54,42.805,6.029,4330,1995,197.829,60.497,13.287
2017-10-12T18:07:54,42.805,6.029,4330,1995,197.789,60.485,13.287